Theta_e
350 350 351 352 352 352 352 352 352 347 345 343 344 345 344 345 346 346 346 345 344 343 344 341 340 340 342 342 342 344 344 344 341 338 337 339 338 336 337 336 338 340 341 341 341 340 340 340 340 338 338 340 341 343 343 341 342 343 345 344 343 343 342 343 343 342 343 344 344 343 340 338 335 337 341 344 345 345 344 343 343 344 344 343 342 341 342 342 342 342 342 342 342 342 342 342 340
350 349 350 351 352 353 352 352 351 344 342 341 343 345 344 346 347 346 346 345 344 343 343 340 341 342 343 343 343 344 344 344 342 340 339 339 337 337 337 336 339 341 341 342 342 341 340 340 341 341 341 342 341 342 343 343 344 344 344 344 343 343 342 343 343 343 343 344 344 342 340 337 337 342 344 345 344 345 344 343 343 343 343 343 343 342 342 342 342 342 342 342 342 342 342 342 341
348 348 349 350 353 352 353 353 348 342 340 338 341 346 345 347 348 346 346 346 344 343 341 341 343 344 343 343 344 344 344 344 343 341 340 338 337 337 336 337 339 341 342 342 342 341 341 341 340 342 342 343 342 344 344 345 346 344 344 345 344 343 342 342 342 343 343 344 344 342 339 336 338 343 344 344 344 344 344 343 344 344 343 343 343 342 342 342 341 342 342 342 342 342 343 342 342
347 348 349 351 353 352 356 356 349 343 338 338 340 345 348 348 347 345 347 346 344 342 341 343 345 345 344 344 344 344 345 344 343 342 341 338 338 337 336 338 338 341 342 342 341 340 340 340 338 339 342 344 344 345 345 345 344 343 344 344 343 342 342 342 341 342 343 343 344 341 339 337 339 344 345 344 344 345 344 343 344 344 344 343 342 342 341 342 341 341 342 343 342 342 342 342 342
350 352 351 353 354 352 357 355 348 343 339 340 341 345 348 346 346 346 347 345 344 342 343 345 345 345 344 345 345 345 345 344 343 342 341 339 337 337 337 338 338 340 341 340 338 338 338 336 336 338 342 344 343 344 344 343 342 342 343 343 343 342 342 343 341 342 343 343 344 343 340 339 340 343 343 344 344 344 343 343 344 344 343 343 342 342 342 341 340 341 342 342 342 342 342 342 343
351 353 352 353 353 352 357 351 344 344 343 345 344 347 347 346 348 347 347 345 344 343 345 346 344 345 345 345 346 345 344 344 342 341 341 339 337 337 337 337 338 338 337 336 335 337 338 338 340 341 343 343 342 343 340 341 341 341 343 343 342 343 343 342 341 341 342 342 343 343 341 340 341 343 343 343 343 343 343 343 344 344 343 342 342 342 341 339 340 341 342 342 342 343 343 343 343
350 352 352 353 353 353 356 350 345 346 346 347 346 347 346 347 349 347 346 345 344 344 345 346 345 345 345 345 345 346 344 342 342 341 339 338 337 337 337 336 336 335 336 336 336 338 341 342 342 342 343 343 341 340 339 339 341 341 342 343 342 344 344 341 341 341 341 342 342 342 342 341 341 342 343 342 343 343 343 344 343 344 343 342 342 341 339 339 340 340 341 343 343 344 344 344 343
350 352 352 353 356 356 353 349 349 349 348 347 347 347 347 348 348 347 346 345 344 344 345 345 345 345 346 345 345 346 344 341 340 339 337 337 337 337 336 335 334 335 337 337 339 342 344 343 343 343 343 342 340 338 338 339 341 342 342 343 344 344 343 341 342 341 341 343 342 341 341 342 341 342 342 342 343 343 344 344 343 343 342 342 341 340 339 339 339 339 343 344 343 344 343 343 341
350 351 352 354 355 354 350 349 350 350 349 347 347 347 347 347 348 348 346 346 345 345 345 344 344 346 346 346 346 346 345 342 339 338 337 337 337 337 335 332 333 337 338 339 342 344 344 343 343 344 342 342 341 340 339 340 341 342 342 342 343 344 342 341 342 342 341 342 342 342 341 341 343 342 342 342 342 343 343 343 342 341 341 341 341 340 340 340 339 341 344 344 343 344 343 342 340
351 350 353 354 353 350 348 350 349 349 350 347 347 348 347 346 347 348 347 346 346 346 346 344 344 346 346 346 346 346 346 342 339 339 338 337 338 335 331 330 335 339 338 340 343 343 344 343 343 344 343 343 342 341 341 341 342 343 343 341 342 343 341 340 341 342 342 342 341 342 342 341 342 342 343 343 341 342 342 342 341 341 340 340 341 341 341 341 342 343 344 342 343 343 342 341 338
352 350 351 353 350 347 347 349 349 350 349 347 347 347 345 346 347 348 348 347 347 347 345 345 345 346 346 346 346 346 345 342 340 340 338 337 336 331 328 332 338 340 340 341 342 342 343 344 344 343 344 342 341 342 342 342 342 343 343 341 341 342 341 340 341 341 341 342 342 342 343 341 343 343 343 343 341 341 341 342 342 342 342 341 341 340 341 341 343 344 342 342 342 342 341 337 333
353 350 352 354 350 349 348 349 350 349 348 346 346 347 345 346 348 347 348 347 346 346 345 345 345 345 346 346 346 346 344 342 339 339 337 334 331 329 333 336 339 340 341 341 340 341 343 343 343 343 343 343 342 342 341 342 344 345 344 340 340 341 341 340 341 342 341 341 342 343 343 343 343 343 343 343 343 343 342 341 341 341 341 340 341 341 342 343 342 343 342 342 342 342 339 333 331
352 351 353 354 353 355 353 350 351 349 347 347 347 347 344 347 349 348 348 346 346 345 344 345 344 345 346 346 346 346 344 342 338 335 333 331 330 335 339 340 340 340 341 340 339 340 342 342 342 342 343 343 343 343 342 344 344 344 342 339 340 341 340 340 340 343 342 341 343 344 343 343 342 342 343 343 343 343 343 342 341 342 342 342 342 343 341 341 342 342 342 342 342 341 335 332 331
351 351 352 353 353 355 355 350 349 347 346 347 348 346 345 347 348 347 347 345 346 346 345 344 344 345 345 346 345 346 344 339 334 332 332 332 335 338 340 341 341 340 341 339 339 341 342 342 342 343 343 343 342 343 343 344 345 343 340 339 341 341 340 341 342 342 343 342 342 344 344 342 341 340 342 342 343 344 344 342 342 342 342 342 342 341 339 339 340 341 341 341 342 339 333 331 332
351 350 351 353 352 351 352 350 348 347 346 348 348 346 346 346 345 346 347 346 347 346 345 343 343 343 344 344 344 346 343 335 333 335 337 338 338 338 340 341 340 340 340 339 340 341 343 342 342 343 343 343 343 343 343 344 345 343 340 340 341 342 341 340 342 342 342 343 343 343 342 341 340 341 342 342 342 343 343 342 342 342 341 341 340 340 338 337 337 338 339 341 341 336 332 333 334
350 349 351 352 351 349 350 350 348 346 347 349 347 346 347 346 345 346 345 346 347 346 346 344 343 343 344 345 344 346 343 338 337 340 341 342 341 339 339 341 340 340 339 340 342 342 342 342 343 343 343 343 343 343 344 344 344 342 341 341 341 343 342 339 342 342 342 343 343 342 341 341 341 343 343 341 342 342 343 343 342 341 341 341 339 337 336 335 335 335 338 341 341 336 334 336 337
350 350 352 351 350 349 351 351 348 347 350 349 346 346 347 346 345 345 345 346 347 346 346 345 345 345 345 343 343 346 345 343 343 344 344 345 344 343 342 342 341 340 340 341 343 344 343 343 342 343 343 343 343 344 344 344 344 342 341 341 341 342 341 340 342 342 342 343 343 343 341 341 343 343 343 342 342 342 342 343 341 341 340 338 336 334 332 332 333 337 339 340 340 336 336 338 338
351 351 352 349 349 350 352 352 351 351 350 348 347 347 347 346 346 346 346 347 347 347 347 347 346 347 344 338 342 348 347 345 345 345 345 345 345 344 344 344 343 342 341 343 343 344 343 343 342 342 342 342 343 343 344 344 344 342 342 340 339 341 341 340 341 340 341 343 343 342 342 342 343 343 342 343 341 341 342 342 340 339 337 334 331 330 330 333 336 338 338 338 338 336 337 338 339
352 352 352 350 350 352 353 354 355 355 350 348 348 347 348 347 347 347 347 347 347 346 347 348 348 349 346 340 345 348 347 346 346 345 344 343 342 341 343 344 344 342 342 344 343 343 343 343 342 342 341 341 343 343 344 344 344 343 342 341 339 340 340 340 340 340 341 342 342 342 342 342 342 342 341 341 341 340 341 340 338 336 332 329 328 330 333 337 338 338 337 337 337 336 338 339 339
352 352 353 352 351 352 353 355 358 357 351 348 347 347 348 347 346 347 347 347 347 347 348 349 349 350 348 346 348 348 348 348 347 346 342 339 339 339 340 341 342 342 342 342 343 343 342 342 343 343 342 342 343 344 344 344 344 344 343 341 340 340 341 341 340 341 341 341 341 341 342 343 341 340 340 341 341 340 339 337 334 331 329 328 329 334 337 338 338 337 337 336 337 337 338 339 340
352 351 352 352 351 351 353 353 355 356 351 348 347 347 348 346 346 346 347 346 347 348 348 348 349 349 349 349 349 348 349 349 347 345 340 337 337 338 339 340 341 342 341 341 343 344 342 341 342 343 344 343 344 344 345 344 344 344 344 342 340 340 341 341 340 340 340 341 341 341 341 342 340 340 340 339 339 337 336 334 330 328 328 329 332 336 337 338 338 338 338 337 337 338 338 339 339
352 352 353 353 351 351 354 353 354 354 350 347 347 347 347 346 346 347 348 347 346 348 346 346 348 349 349 348 349 348 348 347 345 342 339 338 338 338 338 339 341 341 341 342 344 343 341 341 342 343 343 344 344 344 344 344 344 344 344 344 341 340 341 341 340 340 340 341 341 340 340 340 339 339 338 337 335 333 332 330 329 328 328 331 334 337 338 339 339 339 339 339 338 338 338 338 338
351 352 353 354 352 352 354 354 353 352 349 348 348 348 347 346 347 346 346 344 344 345 344 344 347 347 347 347 348 348 348 346 343 341 340 339 339 338 338 339 340 340 343 342 342 342 340 341 342 342 343 344 344 343 343 344 343 344 343 343 341 339 340 339 340 340 340 341 339 338 338 339 338 338 336 335 334 332 330 329 329 328 328 332 336 338 340 339 340 340 340 339 339 339 338 338 339
350 351 353 353 353 352 352 353 353 350 349 349 348 348 348 347 346 345 344 342 342 344 343 344 346 346 346 346 346 346 346 345 343 342 341 339 340 340 338 338 340 341 342 341 340 340 340 340 342 341 342 344 344 343 343 343 343 343 342 342 341 340 340 339 339 340 340 339 338 337 337 337 337 336 335 334 332 329 328 328 328 329 332 336 338 339 339 340 340 340 340 340 340 340 339 340 340
351 350 352 351 352 351 351 352 351 349 348 348 349 350 350 347 345 345 344 343 345 345 343 345 345 345 345 345 345 345 344 345 345 343 341 341 342 341 337 337 340 341 341 340 340 340 339 340 340 341 341 343 344 343 342 342 342 343 342 341 341 340 340 339 339 339 338 337 336 336 336 335 336 335 333 331 329 330 329 329 330 333 336 338 339 339 340 340 340 340 340 340 340 341 341 340 340
352 351 352 351 351 351 352 352 350 348 348 349 350 351 350 346 344 345 343 344 346 346 344 345 347 346 346 345 344 345 345 345 345 344 342 342 343 341 338 337 340 341 339 339 340 340 339 339 339 340 341 341 342 342 342 342 342 341 341 341 340 340 339 338 338 338 337 336 335 335 334 334 335 333 331 330 331 334 334 333 333 334 337 339 339 339 339 340 340 341 340 340 341 340 341 340 341
353 351 351 351 351 351 352 352 349 348 348 350 350 351 350 345 343 345 342 345 347 346 347 347 347 347 346 345 345 345 345 345 345 345 344 343 343 342 338 337 339 339 339 339 340 340 339 339 340 340 340 340 340 340 341 342 341 341 342 341 340 340 339 338 338 337 336 336 335 334 334 334 334 332 331 332 336 338 340 339 337 337 338 339 339 340 340 340 340 340 340 341 341 341 341 341 342
351 351 350 350 350 350 351 351 347 350 350 348 348 350 350 346 345 345 343 345 347 346 348 347 348 348 346 346 345 345 346 346 346 345 344 344 344 342 339 337 338 338 339 339 338 339 339 339 340 340 339 339 338 338 339 341 340 341 341 340 340 340 339 339 338 337 336 336 335 334 335 334 334 333 334 336 338 340 340 340 340 340 340 340 339 340 340 340 340 340 340 340 341 342 342 342 342
351 350 350 349 349 349 350 351 348 351 351 346 349 349 349 348 345 344 343 346 347 347 348 348 349 348 347 347 346 346 346 346 346 345 345 344 344 343 340 338 338 337 339 339 338 338 339 339 339 339 339 338 337 337 337 339 341 341 341 340 339 339 339 338 337 336 336 336 335 334 334 335 335 336 337 339 340 340 340 339 339 340 340 340 339 339 339 339 340 340 340 341 341 341 341 342 342
351 350 350 349 351 351 349 350 349 351 350 347 351 350 348 349 346 344 345 346 347 348 348 348 348 348 347 348 347 347 346 346 345 344 345 345 345 344 341 338 338 337 338 338 337 338 337 338 338 338 338 338 338 337 336 337 339 340 340 340 339 338 337 337 336 335 335 336 335 335 335 336 337 338 339 339 339 339 339 340 340 341 340 341 340 339 339 340 340 340 341 341 341 341 341 341 341
351 350 352 350 351 352 349 349 349 351 349 348 353 354 350 348 345 344 346 346 347 348 348 348 347 348 348 348 348 347 346 345 345 345 345 345 345 345 343 340 338 337 337 337 337 337 336 336 337 337 338 338 338 337 336 336 337 337 338 338 338 337 335 335 335 335 336 336 336 336 336 336 337 339 340 340 341 341 342 343 342 343 343 342 341 340 340 340 341 341 340 341 341 341 341 341 341
349 349 350 350 351 351 350 349 350 352 350 348 354 357 352 347 344 345 346 346 346 348 348 348 347 347 347 347 348 347 346 345 346 346 345 345 345 345 344 341 338 336 337 337 337 337 336 336 336 337 337 338 337 337 336 336 337 337 337 337 335 335 335 335 335 336 337 337 338 338 337 337 338 340 341 343 344 344 345 345 344 345 345 343 342 342 341 341 341 341 340 340 340 341 340 340 341
348 348 347 349 350 350 351 351 350 352 352 350 353 357 351 346 344 345 346 347 346 347 348 348 347 347 347 347 347 347 347 347 346 346 345 346 346 345 345 343 340 337 337 337 337 336 335 336 336 336 338 338 337 335 335 335 337 337 336 336 335 335 336 336 336 337 338 339 340 340 339 340 341 343 344 345 344 345 344 344 345 344 344 344 343 343 343 343 342 341 340 340 339 340 340 340 341
347 347 346 349 350 349 352 352 351 350 352 353 353 354 351 346 344 344 346 347 347 347 347 347 348 347 347 347 347 347 347 347 346 345 345 346 346 346 345 344 341 339 338 337 337 337 336 336 336 336 337 338 336 334 333 334 335 336 335 335 336 336 336 337 337 339 340 341 341 342 342 343 344 344 345 345 345 343 342 343 343 343 343 344 344 343 343 343 343 342 340 339 339 339 340 340 341
346 347 346 348 350 349 351 353 351 349 351 354 353 354 352 347 344 344 346 347 347 346 346 346 347 347 347 346 346 346 346 346 345 345 345 346 346 346 345 344 342 340 339 338 338 338 336 336 336 336 337 338 336 334 333 333 334 334 335 336 336 337 337 337 339 341 342 342 342 343 344 344 345 345 345 345 344 343 342 342 342 343 344 344 344 343 343 343 343 343 342 342 341 340 340 341 341
347 349 349 347 348 350 352 352 352 351 352 355 354 355 353 347 343 345 345 346 346 346 346 346 346 346 346 346 346 345 345 345 345 344 345 346 345 346 345 344 342 341 340 339 339 339 337 335 336 336 336 336 335 334 333 332 333 333 334 335 336 337 337 337 338 339 341 341 343 344 345 345 345 345 345 344 344 343 343 342 343 344 346 345 344 343 343 343 344 345 345 345 343 341 340 341 341
348 350 350 348 348 350 353 353 351 352 353 354 354 354 353 347 343 344 345 346 346 346 346 345 346 346 346 345 345 345 345 345 345 344 344 346 346 346 346 344 342 342 341 339 339 339 338 336 337 336 336 336 335 334 333 332 331 333 333 334 335 336 337 338 338 339 339 340 342 344 344 345 345 346 345 345 344 343 343 344 343 345 346 346 344 344 344 345 345 346 346 346 345 343 342 341 341
348 349 350 348 348 350 353 353 350 351 353 353 353 353 351 348 345 345 345 345 345 345 345 345 346 345 345 345 344 345 344 344 344 344 344 345 345 345 346 344 342 341 340 339 339 339 339 338 338 336 335 335 335 334 334 333 332 332 333 334 335 336 337 338 340 340 340 340 341 342 344 344 345 346 345 345 345 344 344 344 343 345 347 346 344 343 344 344 345 346 346 347 346 345 344 342 341
349 348 348 347 349 351 351 352 351 350 352 354 353 353 352 349 346 346 346 345 345 345 344 345 345 345 345 345 344 344 344 344 344 344 344 345 344 344 345 345 343 342 341 340 339 339 340 340 339 338 335 334 336 336 336 336 335 335 335 336 337 337 338 339 340 341 340 340 341 341 341 343 344 345 346 346 346 346 346 345 344 346 348 347 344 343 344 344 345 346 347 348 347 346 344 343 342
347 347 345 345 349 349 347 351 352 350 351 353 353 352 352 351 348 347 347 348 347 345 344 344 344 345 344 344 343 344 344 343 343 343 344 344 344 344 344 345 344 343 343 341 340 340 340 340 339 339 337 335 334 335 335 336 337 337 338 339 339 338 339 339 339 340 339 338 338 338 339 341 343 344 345 345 346 347 347 345 345 346 348 347 345 344 344 345 346 347 348 348 347 346 345 344 343
342 345 344 344 350 348 346 351 352 350 351 351 351 349 349 350 349 348 348 351 350 348 346 344 344 343 343 343 342 343 343 343 343 344 344 343 343 344 344 345 345 344 344 343 342 341 340 340 340 339 339 336 334 333 335 336 337 339 339 340 339 338 338 338 338 337 336 336 336 337 337 339 342 343 344 344 345 346 346 345 344 345 347 346 345 344 344 346 347 348 349 349 347 347 346 344 344
336 341 344 345 348 349 349 351 350 349 349 350 349 344 344 349 350 348 348 349 350 350 349 346 345 344 342 342 342 342 342 343 343 343 344 343 343 344 344 345 345 345 346 345 344 342 342 341 339 339 339 338 336 335 336 338 339 340 340 339 337 337 337 336 336 337 336 336 336 337 337 338 339 340 342 342 343 344 345 344 343 343 345 345 344 343 344 347 349 349 349 349 347 347 346 345 344
330 334 339 342 348 349 350 349 347 345 345 350 350 343 342 347 350 349 349 348 348 350 350 348 347 347 343 342 341 342 342 342 342 342 343 343 343 343 344 344 344 344 345 346 344 343 343 341 340 339 338 338 338 337 337 339 341 341 340 338 336 336 336 336 338 339 339 338 338 337 338 338 338 339 340 341 341 343 344 343 343 343 343 343 343 344 345 347 349 350 350 349 348 347 346 345 345
329 334 337 341 348 349 349 348 346 345 345 349 351 346 343 343 347 350 348 349 349 348 349 349 349 349 346 343 341 341 341 341 341 341 342 342 342 342 343 344 344 344 345 346 345 343 342 341 340 339 338 338 338 338 338 340 342 341 340 338 337 337 337 339 341 342 342 342 340 339 339 339 339 339 339 340 341 342 343 344 343 343 343 343 343 344 346 348 348 349 350 349 348 348 347 347 346
334 340 341 344 347 348 348 348 346 345 344 344 347 348 344 341 345 350 349 349 350 349 348 349 349 350 349 346 343 341 341 341 341 341 342 342 342 342 342 342 343 344 344 345 345 343 341 341 341 340 340 339 338 338 339 340 341 341 340 338 338 338 338 341 343 344 345 345 344 343 342 341 340 339 338 339 340 341 343 344 344 344 343 343 344 345 347 348 348 349 349 349 348 349 348 348 347
340 345 343 345 346 345 346 346 345 345 343 341 344 346 344 341 344 350 349 348 349 349 348 348 349 350 350 348 345 342 341 340 340 341 341 342 342 342 342 342 342 343 344 345 346 344 343 343 343 341 341 339 339 338 338 340 341 341 340 338 338 339 339 342 344 345 346 346 346 345 344 343 341 339 339 339 340 341 343 343 344 344 344 344 344 344 347 348 348 349 349 349 348 347 348 349 348
343 344 343 344 344 343 345 344 344 344 341 339 343 346 343 341 343 348 350 349 349 348 348 348 349 350 351 350 347 344 341 340 340 341 340 341 342 342 342 342 343 343 344 345 346 346 344 345 346 344 342 340 339 339 339 339 339 340 340 338 337 338 340 342 344 345 346 346 346 346 345 344 341 340 340 340 341 342 343 344 344 344 345 345 344 344 346 348 348 349 349 349 346 344 345 348 348
343 345 344 342 342 342 342 342 342 341 339 338 343 346 344 340 340 347 350 348 347 348 348 348 349 350 351 351 348 345 342 341 340 340 341 341 341 342 342 342 342 343 343 344 345 346 346 346 346 346 345 343 340 339 339 339 338 338 338 338 337 338 341 343 345 345 346 347 347 347 347 345 342 341 341 341 341 342 343 344 344 343 343 344 345 344 345 346 348 349 349 349 346 343 344 345 347
343 343 340 335 339 342 340 339 339 338 336 339 343 346 345 342 341 346 348 346 345 346 347 348 348 350 351 351 350 346 343 341 340 340 341 341 341 341 341 341 342 343 343 344 345 346 346 346 347 346 346 345 342 340 339 338 338 338 338 337 338 340 342 345 346 347 348 348 348 348 348 346 343 341 342 341 341 342 342 343 344 344 343 344 345 345 345 346 348 349 349 348 346 344 345 345 344
342 340 334 328 333 339 340 338 337 336 336 340 345 346 343 342 343 348 348 347 349 347 347 347 347 348 349 351 351 347 344 341 341 340 340 341 340 341 341 341 342 342 342 343 344 345 346 346 347 347 347 346 343 341 339 338 338 337 337 337 338 341 344 346 347 348 349 349 349 348 349 348 345 344 344 342 341 342 343 344 345 345 343 343 345 344 344 345 346 347 347 347 347 346 345 345 345
343 339 335 329 329 334 337 337 336 337 339 343 345 343 339 338 342 349 350 350 352 350 347 346 346 346 347 349 350 348 346 342 340 340 340 341 341 340 341 341 341 342 342 343 344 344 345 346 347 347 347 347 344 341 338 337 337 337 337 337 338 339 342 345 347 349 349 349 348 348 348 348 348 348 347 345 344 343 344 345 346 345 344 343 344 344 344 344 345 345 345 346 347 347 347 347 347
341 339 337 333 330 334 334 334 338 339 340 344 344 341 340 341 343 348 350 351 352 350 348 346 346 347 347 349 351 349 346 344 341 341 340 340 341 340 341 341 341 341 341 342 343 343 345 345 346 347 347 347 346 344 340 337 336 337 336 336 337 337 339 342 345 347 349 348 348 348 348 348 349 349 349 348 347 346 345 346 347 346 345 343 343 343 344 344 344 344 345 346 348 348 349 349 349
339 337 336 333 332 337 335 334 340 338 335 339 342 339 340 342 341 345 350 349 350 350 350 348 346 347 347 348 350 349 347 345 342 341 341 341 340 340 340 341 341 341 341 342 342 342 344 345 346 346 346 347 347 346 345 342 339 338 337 337 337 336 337 338 342 344 346 347 347 347 347 348 348 349 349 349 349 348 347 346 346 346 345 344 343 343 343 344 344 346 347 347 348 347 348 348 348
338 336 335 331 329 332 333 336 338 335 331 334 339 339 338 337 339 346 350 349 349 349 350 350 347 345 347 348 349 348 347 345 343 342 341 340 341 340 341 341 341 341 340 340 341 341 343 344 345 346 346 346 347 347 347 346 344 342 340 338 337 336 336 337 338 340 343 346 347 347 346 347 347 348 349 349 349 349 348 347 347 346 346 346 345 344 344 344 344 347 348 348 348 346 345 346 346
331 333 333 331 331 331 331 334 335 333 331 331 335 336 338 339 342 348 350 349 350 349 349 350 348 345 346 348 349 349 348 346 345 344 342 342 341 341 341 341 341 341 341 340 341 342 343 344 345 345 346 346 347 347 347 347 347 345 343 340 338 336 336 337 337 337 340 343 345 346 346 346 346 347 347 348 349 349 348 348 346 346 347 348 348 348 346 345 345 346 347 347 346 345 344 345 344
324 331 331 326 328 330 329 331 330 329 330 330 329 330 337 344 347 349 350 350 350 350 349 350 350 348 346 347 349 349 348 348 347 345 344 343 342 341 341 341 341 341 341 341 341 342 342 343 345 345 346 346 346 347 348 348 348 347 345 341 338 336 336 337 336 336 338 339 342 345 345 345 346 346 346 346 347 348 348 347 347 346 347 348 349 349 348 347 347 347 346 345 345 344 343 344 344
321 328 328 322 322 323 323 325 325 325 327 329 326 325 336 345 348 349 350 350 351 350 349 350 351 350 347 346 348 348 348 348 347 346 345 344 343 342 341 341 341 341 341 341 341 341 342 343 344 345 346 346 346 347 348 348 347 346 344 341 337 335 335 336 336 336 336 337 340 343 344 344 344 344 344 345 345 346 345 346 346 346 346 346 347 348 348 348 348 348 348 347 346 344 344 344 344
324 328 328 325 320 319 320 321 320 321 325 328 325 325 339 347 346 348 350 351 351 350 350 351 351 350 349 348 348 348 348 348 348 347 346 345 344 343 342 341 341 341 341 341 341 342 342 343 344 345 345 346 346 347 348 349 347 345 343 340 338 337 336 335 335 335 335 335 337 341 342 342 342 341 342 343 343 342 342 342 343 345 345 345 345 346 348 349 349 348 348 347 346 344 343 343 343
Wind_Speed
4 3 2 2 4 4 3 2 0 1 0 3 2 1 2 2 4 6 8 9 8 7 6 14 17 11 4 1 3 3 4 2 0 2 2 9 20 23 18 17 16 15 15 14 15 14 13 11 9 10 10 10 9 9 9 9 10 10 10 9 8 8 8 10 11 11 12 12 12 13 14 14 16 18 19 18 16 16 16 16 16 16 16 16 16 16 16 16 16 16 16 16 16 15 15 16 16
2 1 2 3 4 3 2 2 0 2 2 4 2 1 3 3 5 7 9 6 7 9 13 19 14 6 3 3 5 5 5 4 2 2 10 19 23 21 18 17 15 15 13 13 13 13 12 12 11 10 9 8 7 8 8 9 10 10 10 10 9 9 8 10 11 12 12 12 12 13 14 14 17 18 17 15 15 16 17 16 16 15 15 15 15 15 15 15 15 15 15 14 15 14 15 16 15
2 0 1 3 4 3 2 2 0 2 3 4 2 1 1 3 5 7 6 5 11 15 19 18 9 4 4 6 4 2 4 4 4 9 15 21 21 20 19 17 16 14 12 12 12 11 12 11 12 10 9 8 7 7 8 9 10 9 11 11 10 10 9 10 10 12 12 12 12 12 14 15 16 16 15 14 15 16 16 15 16 15 15 15 15 15 15 14 14 14 14 13 14 14 14 15 15
1 0 2 3 2 2 1 1 1 1 4 4 3 2 0 3 7 7 6 9 15 18 20 15 7 4 3 5 3 3 5 4 6 10 15 18 18 19 19 18 17 15 13 12 12 11 11 11 11 10 9 8 7 7 7 8 8 7 9 9 9 10 10 9 10 11 12 13 13 12 14 14 16 14 13 14 14 16 15 15 15 15 15 15 15 15 14 13 14 13 13 13 13 13 13 14 14
2 2 2 2 1 1 1 1 1 1 3 2 4 4 1 5 8 8 8 12 15 15 17 11 6 5 5 7 4 2 5 5 7 10 14 17 18 19 18 18 17 15 14 13 13 11 10 10 9 8 7 6 5 5 6 6 6 7 7 7 8 10 10 9 10 11 11 12 13 13 13 13 15 13 12 13 14 14 14 14 14 14 14 15 14 14 14 13 14 13 13 12 12 12 12 13 13
3 3 2 1 1 1 1 1 2 2 3 0 3 4 4 6 9 12 13 13 12 12 11 7 7 8 8 8 8 6 4 5 8 10 15 17 19 18 17 16 15 14 13 13 12 10 9 9 8 7 6 5 5 4 4 5 4 5 7 6 7 9 9 8 10 12 10 10 12 13 13 13 13 13 12 12 13 14 13 14 14 13 14 15 14 13 13 13 13 12 13 12 11 12 13 14 14
3 2 1 0 1 1 1 3 3 3 2 1 1 5 6 8 12 15 15 12 10 9 7 7 10 11 7 5 8 8 4 6 9 14 17 18 18 16 16 14 13 11 11 11 11 9 8 7 7 6 5 4 4 3 3 4 4 4 5 6 7 9 9 8 9 11 10 10 12 13 13 13 12 12 11 12 13 13 13 13 13 13 13 13 14 13 13 12 11 11 12 12 11 12 14 15 15
4 2 2 1 1 1 2 4 3 2 2 0 2 5 8 10 13 14 12 10 9 8 7 9 9 7 6 4 6 7 6 8 12 16 18 18 17 15 14 12 11 10 10 10 9 8 7 7 6 5 5 4 3 3 3 3 4 4 5 6 7 8 8 8 9 10 10 10 11 13 13 13 12 11 11 11 13 13 13 13 13 12 12 12 12 13 13 11 11 11 12 12 12 13 14 15 15
4 2 1 0 1 2 3 4 3 2 2 3 4 6 9 9 9 11 10 8 9 9 8 8 4 4 7 9 10 7 7 9 13 16 17 17 15 14 12 10 9 9 10 9 8 7 6 6 6 5 4 3 3 3 3 3 4 4 5 6 6 8 8 9 9 10 10 10 10 12 13 13 12 12 11 12 13 13 13 13 12 12 12 12 11 11 12 11 11 11 11 12 13 14 15 15 16
3 1 1 1 2 4 4 3 3 3 3 4 5 8 9 7 7 9 10 9 10 9 7 6 6 9 11 11 10 7 8 10 14 16 16 15 13 13 11 10 9 7 8 8 7 6 6 5 5 5 4 4 3 3 4 4 5 5 5 6 7 8 8 9 9 10 10 10 10 11 12 13 12 12 11 12 14 13 13 13 13 12 12 12 12 11 12 12 11 11 11 12 13 15 16 16 15
2 1 1 1 3 5 5 4 4 4 4 5 6 7 6 7 10 9 10 10 8 9 8 6 10 14 13 10 8 7 10 12 14 16 16 15 13 12 11 10 9 7 6 6 6 5 5 4 4 4 3 4 3 3 4 5 7 6 6 7 8 8 8 9 9 10 10 10 10 11 11 12 11 11 11 12 14 13 13 13 13 12 12 12 11 11 12 12 11 11 12 13 14 15 16 16 16
2 1 1 2 3 3 4 5 5 6 6 7 7 5 5 9 10 10 11 10 9 10 7 4 10 13 10 9 9 9 11 12 14 16 15 14 13 11 10 9 8 7 6 5 5 4 4 4 4 4 3 3 3 3 3 4 6 7 7 6 8 9 8 9 9 10 11 11 11 11 11 11 11 10 10 12 13 14 13 13 13 12 12 11 10 11 11 11 10 11 11 13 14 15 16 16 16
2 1 1 2 1 2 5 5 6 7 5 7 6 5 8 7 7 10 12 12 9 8 4 7 14 11 8 11 11 10 11 13 15 15 15 14 12 11 9 8 7 6 6 5 4 4 3 4 4 3 3 2 2 2 2 3 5 7 7 6 7 9 9 9 9 9 10 11 11 11 11 10 10 10 9 10 12 13 13 13 13 12 12 11 10 10 10 10 10 11 11 12 14 15 16 16 16
3 2 1 2 2 3 4 5 7 7 4 6 6 8 8 4 6 9 12 12 5 6 8 12 15 9 10 12 10 12 12 15 16 16 15 13 12 11 9 8 7 6 6 5 4 4 3 3 3 3 2 2 3 2 2 3 5 8 9 7 8 9 9 9 10 10 10 11 11 9 10 10 10 10 10 10 11 12 13 14 13 12 11 10 10 9 9 10 11 11 11 12 14 15 16 16 16
4 2 1 2 3 4 2 3 7 6 4 5 7 10 8 6 10 8 8 9 6 9 11 12 10 5 9 9 10 15 15 17 17 16 14 12 11 10 9 8 7 6 5 5 4 3 3 2 2 2 2 2 2 2 2 3 6 9 9 9 10 11 10 10 10 10 11 11 11 10 10 10 10 11 10 9 10 11 12 13 12 12 11 10 9 9 9 10 10 10 11 12 14 15 15 16 16
4 2 0 2 3 4 2 3 7 6 4 5 9 12 10 9 9 6 4 8 11 10 8 8 4 3 9 10 14 18 16 18 17 15 13 11 11 9 9 8 6 6 5 6 4 3 3 2 2 2 2 3 2 3 3 4 8 10 10 11 12 12 11 11 10 11 11 11 11 11 10 11 12 12 11 10 10 11 11 12 12 11 10 10 9 9 10 10 9 10 12 13 14 15 14 14 14
3 2 0 3 3 4 3 4 6 5 5 6 11 13 10 8 6 7 9 12 14 9 6 6 4 6 12 14 19 20 17 18 16 14 12 10 10 8 8 7 6 6 5 5 4 3 2 2 2 2 3 3 3 5 5 5 8 11 12 12 13 13 12 12 11 12 12 11 11 11 11 12 12 13 12 11 11 11 11 10 10 10 9 9 9 10 10 10 10 11 13 14 14 14 13 13 13
2 1 1 3 4 4 2 2 3 4 7 8 11 13 13 10 9 12 12 12 13 11 10 9 10 11 13 17 21 18 17 16 14 13 11 9 8 7 7 6 5 5 5 5 3 3 2 2 3 3 4 4 5 7 7 8 9 12 13 13 14 14 14 13 13 12 12 12 12 12 12 12 12 12 12 11 11 11 10 9 9 8 9 10 10 10 10 11 12 13 14 14 13 13 12 13 13
2 1 0 2 2 3 2 2 2 2 9 10 10 12 13 13 14 14 10 9 11 11 11 12 16 15 15 20 19 16 16 14 12 11 9 8 7 7 6 6 6 5 5 4 3 3 3 3 4 5 6 6 7 9 10 10 11 13 14 13 14 14 14 14 14 13 12 12 13 14 13 12 11 11 11 11 10 10 9 8 8 9 10 10 11 11 12 12 12 13 13 13 13 12 12 12 12
1 1 1 2 2 2 2 2 3 3 10 13 10 9 10 12 13 12 10 10 9 9 11 13 17 18 19 21 18 16 15 12 11 9 7 7 6 6 5 5 6 5 5 4 3 3 3 4 5 6 7 8 9 10 11 12 13 14 15 15 15 15 16 15 14 14 13 13 14 14 14 12 11 11 11 11 10 10 8 8 9 10 10 10 12 13 12 12 12 12 12 13 13 12 12 11 11
0 1 2 3 1 1 2 2 3 3 9 13 12 10 10 11 10 12 15 11 5 8 12 13 19 23 22 21 18 17 14 12 11 8 7 6 5 5 5 5 6 6 5 4 3 3 3 4 6 6 7 9 10 11 12 13 14 15 16 16 16 16 17 16 15 15 14 14 14 14 13 12 11 11 11 10 10 10 9 9 10 11 11 11 13 13 12 12 12 12 12 12 12 11 11 10 10
1 0 1 2 0 1 2 2 3 5 11 13 13 12 11 11 9 14 15 6 2 10 13 13 20 25 25 23 19 16 14 13 10 9 7 5 5 5 6 7 6 6 5 4 3 3 4 5 6 7 8 10 11 11 13 14 15 17 17 16 16 16 16 16 15 15 15 13 13 13 12 11 12 12 11 11 11 11 11 11 11 11 11 12 13 12 12 12 12 11 11 11 11 10 10 9 9
2 1 2 1 2 1 2 2 4 8 13 12 12 11 12 11 8 12 8 3 1 11 15 15 20 24 24 24 19 17 15 12 11 9 7 6 6 5 6 7 7 7 6 5 4 4 5 6 6 8 10 11 12 12 13 15 16 17 17 16 15 15 16 17 17 16 15 13 13 13 12 12 12 12 12 12 12 12 12 12 12 12 12 12 12 12 11 11 10 10 10 10 10 9 9 9 9
4 2 4 3 3 3 2 3 3 8 13 12 12 12 11 9 9 12 4 5 2 13 16 16 21 23 23 22 19 17 15 12 11 8 7 6 5 5 6 7 8 7 6 6 5 5 6 7 8 9 11 12 12 13 13 15 16 17 18 17 16 16 16 17 17 16 14 13 13 13 12 13 13 13 13 13 14 14 13 13 12 12 12 12 11 11 10 9 9 9 9 9 9 9 9 9 9
5 3 4 4 4 6 6 6 6 9 13 14 13 10 6 6 11 11 4 4 8 15 16 16 21 23 21 20 18 16 14 12 10 9 8 7 6 6 6 8 8 7 6 6 6 7 7 8 9 10 12 13 12 13 14 15 16 17 17 17 16 16 16 15 15 15 14 14 14 13 13 14 14 14 14 15 15 14 13 13 12 12 12 11 10 9 9 8 8 8 8 9 9 9 8 8 9
5 3 1 4 5 7 10 9 9 10 11 12 11 8 6 8 11 8 4 7 12 16 17 18 21 22 20 18 16 15 13 12 11 10 8 7 7 6 7 8 8 7 6 6 7 8 8 9 10 11 12 13 13 14 15 15 16 17 17 16 17 16 16 16 15 15 15 15 14 14 14 15 15 15 15 16 15 13 12 11 11 11 10 9 8 8 7 7 6 6 7 7 8 8 8 8 9
4 3 4 1 2 8 14 13 11 9 7 8 10 7 6 10 8 3 6 11 14 17 18 19 20 21 19 17 15 14 12 12 11 10 9 8 8 7 7 9 8 7 7 7 8 9 9 10 11 12 13 13 14 15 15 15 16 17 17 16 16 16 16 16 16 15 15 15 15 15 15 15 15 16 15 14 13 12 11 10 10 9 8 7 6 6 6 5 4 4 5 5 6 7 7 8 9
7 6 7 7 6 4 13 15 10 5 4 7 11 8 6 7 3 3 13 16 16 19 19 19 19 19 19 17 15 14 13 12 11 9 9 8 7 7 7 9 9 8 7 7 9 10 10 11 12 12 13 14 15 15 15 15 15 15 16 16 16 17 16 16 16 16 16 15 15 16 16 16 15 15 14 13 12 11 11 10 9 8 7 6 5 5 4 3 2 3 3 4 5 6 7 8 8
7 5 5 6 8 6 8 11 7 3 3 6 8 6 4 5 1 4 17 19 17 19 18 18 17 17 18 17 16 15 14 12 11 9 9 7 6 6 7 8 8 7 8 8 9 10 11 12 12 13 13 14 14 15 15 15 14 14 15 15 16 17 17 17 17 16 16 16 16 16 16 16 15 14 13 12 11 10 10 8 7 6 6 5 4 4 3 2 1 2 2 3 4 5 6 7 8
5 4 4 5 5 4 5 5 4 3 3 2 2 3 4 3 1 8 20 20 19 19 17 18 16 15 16 16 16 15 14 12 11 9 8 7 5 5 7 8 9 8 8 8 9 10 11 12 13 14 14 14 14 14 14 14 14 14 15 15 16 16 17 17 17 17 17 17 16 16 16 15 14 13 12 10 9 9 8 6 5 4 3 3 4 4 3 2 1 0 1 3 3 4 6 7 8
3 3 3 2 4 2 4 3 5 1 1 2 2 2 3 2 3 12 20 21 22 19 17 18 17 16 15 15 15 15 14 12 10 9 7 7 5 5 7 8 10 9 8 8 9 10 11 12 13 14 14 14 13 13 13 14 14 14 15 15 16 17 18 18 18 18 18 17 16 16 15 14 13 11 10 8 7 7 6 5 4 3 2 2 2 3 2 2 1 1 1 2 3 4 5 7 8
2 1 2 2 3 3 3 3 4 2 2 2 2 1 1 1 5 13 18 19 20 18 17 18 17 17 16 15 15 15 14 12 11 10 8 7 6 5 6 8 10 9 9 8 9 11 12 12 13 14 14 13 13 13 13 13 14 14 15 16 17 18 18 18 18 19 18 16 15 14 13 12 11 9 8 7 7 6 5 4 3 2 2 1 2 2 2 2 2 2 2 1 2 3 5 7 8
0 0 2 2 3 3 3 3 2 2 4 2 2 2 2 2 7 13 16 19 18 16 17 17 17 17 16 15 14 14 14 13 13 12 10 9 7 6 5 8 10 10 10 9 9 10 12 13 13 14 14 14 14 14 14 14 14 15 16 17 18 18 18 18 18 18 16 15 14 13 12 11 10 8 8 7 6 6 5 4 3 2 2 2 1 1 1 2 2 2 3 2 2 3 4 6 7
1 2 2 3 4 5 5 3 2 4 4 1 2 2 2 3 9 14 16 19 18 16 17 17 17 16 15 15 14 14 14 15 15 13 12 10 8 7 6 7 10 11 10 10 9 10 12 13 13 14 14 14 14 15 15 15 15 16 17 18 18 18 17 18 18 17 15 14 13 12 11 9 8 7 7 6 5 5 4 4 4 3 2 2 2 2 2 1 2 2 3 3 3 2 3 5 5
2 3 3 4 5 5 5 4 5 6 4 2 2 2 2 4 10 13 15 18 18 16 16 16 16 15 15 14 14 14 15 16 16 14 12 11 9 8 7 8 11 12 11 11 11 11 12 13 13 14 13 14 15 15 16 16 16 17 17 17 17 17 17 17 16 15 14 13 11 10 9 8 7 7 6 5 5 5 4 3 3 3 3 2 2 2 1 1 2 2 2 2 2 2 3 4 5
3 4 3 5 5 4 4 3 4 5 4 3 2 2 3 5 9 12 15 17 17 15 14 15 15 15 15 14 14 15 16 17 16 15 13 11 10 9 9 9 11 13 12 12 13 12 13 14 14 14 14 15 16 17 18 17 17 17 17 16 16 15 15 15 13 12 11 10 9 9 8 8 7 6 5 5 5 5 4 3 3 3 3 2 2 2 1 1 1 1 0 1 2 2 2 3 5
6 5 4 5 4 4 4 4 2 0 2 3 2 2 3 6 9 12 15 16 15 14 14 15 16 16 16 16 15 16 18 16 15 16 15 13 12 10 10 11 12 14 14 14 14 14 14 15 15 15 15 16 16 17 18 18 17 17 16 15 14 13 12 12 10 9 9 8 8 7 7 7 6 5 4 4 4 5 4 3 3 3 3 2 3 3 2 2 2 1 2 2 2 2 3 3 4
5 4 4 4 3 4 3 4 4 2 1 2 2 3 4 5 6 8 13 15 15 16 17 17 18 17 17 17 17 18 17 15 15 17 16 15 15 13 12 13 14 16 16 15 15 15 15 15 15 15 16 17 17 17 17 17 16 15 15 14 13 12 11 10 9 8 8 8 7 6 6 6 5 5 5 4 4 4 4 3 3 3 2 2 3 3 2 2 2 2 2 2 2 2 3 3 4
2 2 4 2 2 4 3 3 4 2 2 2 3 3 3 4 4 6 11 15 15 17 17 17 18 19 18 19 19 18 17 18 18 17 17 17 16 15 15 15 15 16 16 16 16 16 15 15 16 16 16 17 17 17 16 15 14 14 13 11 11 11 10 10 9 9 9 8 7 7 6 5 6 6 6 5 5 4 3 2 2 3 2 2 3 3 2 2 2 2 2 2 2 2 2 3 4
1 1 2 2 4 4 1 3 4 2 2 1 3 4 2 3 4 5 10 12 11 13 14 14 16 19 21 22 22 20 19 21 20 18 19 19 18 17 18 18 16 15 16 17 17 17 16 16 16 16 16 17 18 17 15 14 14 13 12 11 11 11 11 11 10 9 9 8 8 7 6 6 6 6 6 5 4 3 2 2 2 3 2 2 2 2 2 1 1 1 1 2 2 2 2 2 3
2 3 3 1 6 4 1 5 4 2 1 2 4 3 3 6 8 7 7 6 7 10 13 14 16 20 21 20 21 22 21 23 23 20 20 20 19 19 20 20 17 16 16 16 18 18 17 16 16 16 16 16 17 17 16 15 15 15 14 13 14 13 12 12 11 10 10 8 7 6 7 7 7 7 6 5 4 2 1 1 2 3 2 2 1 1 2 1 1 0 0 1 1 1 1 1 2
4 5 6 6 7 6 6 9 6 3 3 4 5 3 3 6 10 10 7 6 7 8 12 17 18 20 21 20 21 23 22 23 24 22 22 22 20 20 21 22 19 17 16 15 17 18 17 16 16 16 15 16 17 17 17 16 16 16 15 16 16 15 14 13 12 10 9 7 7 7 7 7 7 7 5 4 3 2 1 1 2 3 3 2 2 2 2 2 2 1 1 0 1 1 1 1 1
3 2 4 7 8 7 9 10 6 3 2 2 4 5 3 3 8 11 9 9 10 9 11 18 19 18 22 24 24 24 23 23 24 23 24 24 22 22 23 23 22 20 17 15 15 17 17 16 16 15 15 15 16 17 18 17 17 16 16 16 16 15 14 12 10 9 7 7 7 7 7 7 7 6 5 4 4 3 2 2 2 2 3 3 3 3 2 2 3 2 1 2 2 2 2 1 1
2 6 7 5 7 8 9 8 5 1 0 1 3 3 4 4 4 8 11 11 10 11 12 16 19 19 22 26 26 26 26 26 26 25 26 26 25 24 23 23 23 21 19 16 15 17 17 17 16 15 15 15 16 17 18 18 17 17 17 17 16 15 13 11 9 8 7 6 7 6 6 6 6 6 6 5 5 4 4 3 3 3 3 3 3 3 3 3 3 2 2 3 3 3 3 2 2
1 1 0 4 8 8 8 6 3 1 1 3 4 4 4 5 2 5 11 12 11 14 14 15 20 21 21 24 27 28 28 28 28 28 28 28 27 25 24 24 23 23 21 18 16 16 17 16 16 16 15 15 15 16 18 18 18 17 18 18 16 15 13 11 10 8 7 7 7 7 7 7 7 7 7 6 6 5 5 4 4 3 3 3 3 3 3 3 3 2 3 3 4 4 4 3 3
5 11 11 10 9 7 5 3 2 2 3 4 6 7 5 4 2 4 8 11 13 16 13 15 22 23 21 22 25 28 29 29 29 29 29 30 29 27 25 24 24 24 22 20 18 17 17 16 16 16 16 15 16 16 17 18 18 18 18 18 17 15 13 12 11 10 9 8 8 8 8 8 8 8 7 7 6 5 5 5 4 4 4 4 4 4 4 4 3 3 3 4 4 4 5 5 4
8 11 12 9 7 5 3 2 3 1 4 4 6 11 7 4 2 5 7 7 9 11 10 13 20 23 22 22 24 27 30 31 29 29 30 30 30 28 27 26 25 25 24 22 20 19 18 18 17 17 16 16 16 16 16 17 18 18 18 19 18 16 15 13 13 12 10 9 8 8 8 9 9 8 8 7 7 6 6 6 5 5 5 5 5 5 5 5 5 4 4 5 5 5 5 5 5
10 6 7 6 4 2 2 2 1 3 3 1 3 10 9 5 2 2 5 5 5 6 7 11 18 24 24 24 25 26 31 32 30 30 30 30 31 30 30 28 27 27 26 24 23 21 20 19 18 17 16 16 17 17 17 17 18 18 17 18 18 18 16 15 14 12 11 9 8 8 8 9 9 9 8 8 7 7 7 7 6 7 7 7 6 6 7 7 7 6 5 6 5 5 5 6 6
7 5 7 4 2 2 2 2 2 4 2 3 2 8 7 7 4 3 5 8 8 9 10 11 18 23 24 24 25 27 31 32 31 32 31 30 32 31 31 30 28 27 26 25 24 23 21 20 19 18 17 17 17 18 18 18 18 18 18 18 18 18 17 16 14 12 11 9 9 9 8 8 9 9 8 8 7 7 8 8 7 7 8 8 8 7 7 8 8 7 7 6 6 6 5 5 6
9 8 7 5 3 3 3 3 2 3 2 2 3 6 5 6 3 4 6 8 10 11 13 16 23 27 28 27 26 28 31 31 31 32 32 32 33 33 32 31 29 27 26 26 25 23 22 21 21 20 19 18 18 18 19 19 19 19 18 18 19 18 17 16 15 13 11 10 10 10 8 8 8 8 8 8 7 8 8 8 8 9 9 9 9 9 8 8 9 9 8 8 7 7 6 6 6
7 4 3 5 3 3 3 3 3 1 3 4 5 5 3 2 3 4 6 9 11 12 10 15 23 30 33 29 24 27 30 30 30 32 33 34 34 33 33 31 29 28 27 27 26 24 22 21 21 21 20 19 19 19 20 20 20 20 19 19 19 19 18 17 16 15 13 12 11 10 9 8 8 8 8 8 8 8 8 9 9 10 10 10 10 9 9 9 10 10 9 9 8 8 8 7 7
2 2 3 5 3 2 0 1 1 2 3 3 4 3 2 0 3 3 6 10 12 15 10 6 16 24 28 24 22 27 31 30 30 31 33 35 34 34 33 32 30 29 28 27 26 24 23 21 21 21 21 21 20 20 20 20 20 20 19 19 18 19 19 18 18 17 15 13 13 12 10 9 9 9 9 8 8 9 9 9 10 11 11 11 11 10 9 10 10 10 10 9 9 9 9 9 9
4 2 4 3 1 1 1 2 2 1 3 3 3 4 2 1 3 2 9 11 12 15 13 4 8 16 22 22 23 29 32 31 32 33 35 36 35 34 34 32 31 30 28 28 26 24 22 21 20 20 21 22 21 21 20 20 20 20 19 19 18 19 19 20 19 18 17 15 14 13 11 10 10 9 9 9 9 9 9 10 10 11 12 12 11 11 10 10 10 10 11 10 10 10 10 10 10
8 5 6 2 0 2 1 1 2 2 3 2 2 4 2 1 1 5 12 14 13 13 13 8 3 12 18 19 23 30 34 34 35 35 36 36 35 34 33 32 31 30 28 27 25 24 23 21 20 20 20 20 21 21 21 21 20 20 20 19 19 19 20 20 20 19 18 17 15 14 13 12 10 9 10 10 9 9 9 10 11 12 12 12 11 11 11 11 11 11 11 11 11 10 10 10 10
4 4 6 3 3 4 1 1 3 3 3 1 2 3 1 1 2 7 12 14 14 14 12 8 3 9 15 17 20 27 31 31 33 35 35 35 34 34 33 32 31 30 29 27 26 25 24 23 21 20 19 19 19 20 21 21 21 21 20 19 19 19 20 20 20 19 18 18 17 15 14 13 11 10 10 10 10 10 10 11 11 12 12 12 12 11 11 11 11 11 12 12 11 11 11 11 11
2 5 5 1 2 3 2 2 2 3 3 1 1 2 1 0 3 8 10 12 13 13 11 8 4 6 11 14 17 23 29 30 31 34 34 34 34 33 32 31 31 31 29 27 27 27 26 24 23 22 21 20 19 19 20 20 20 21 21 19 19 19 20 20 20 19 19 19 18 16 15 14 12 11 11 11 12 12 12 12 13 13 13 13 13 12 12 12 12 12 12 12 12 11 11 11 11
2 5 5 3 2 2 2 1 0 2 2 2 2 2 2 2 2 6 9 10 10 11 11 8 6 5 8 10 12 18 27 31 32 33 34 34 33 32 30 30 30 30 29 28 29 28 27 26 24 23 22 21 20 19 19 19 20 21 20 19 19 19 19 20 20 20 20 20 19 18 16 14 13 13 13 13 14 14 14 14 14 14 14 14 13 13 13 12 12 13 12 12 12 12 12 11 11
1 2 3 3 3 2 3 3 1 1 1 1 2 1 2 2 3 5 7 8 9 10 10 7 5 3 4 6 7 11 19 25 29 32 33 34 32 30 30 30 30 30 30 29 29 28 28 27 25 24 24 23 21 20 19 18 18 19 19 18 18 19 19 20 20 21 21 20 20 19 17 16 14 14 13 14 15 15 15 15 15 14 14 14 14 13 13 13 13 13 13 12 12 12 12 12 12
Wind_Direction
118 97 61 29 5 359 1 325 267 76 43 92 55 92 78 91 122 115 127 125 122 141 134 137 148 154 174 198 149 83 47 122 80 317 104 121 139 145 152 154 149 149 153 150 148 150 152 148 138 132 136 137 136 135 132 128 123 125 122 116 114 115 116 108 107 106 105 105 99 97 96 98 108 113 113 114 116 115 114 113 113 112 110 107 104 103 102 100 98 96 95 93 93 91 91 91 89
142 81 28 16 5 357 5 332 32 95 109 103 67 34 75 147 141 124 136 132 128 144 140 140 145 148 162 127 119 107 65 31 6 89 118 133 140 144 150 148 144 146 147 145 144 146 147 144 141 138 137 136 136 133 133 129 122 126 124 120 121 123 121 113 114 112 109 105 98 97 97 103 112 114 112 113 115 114 113 115 115 112 109 108 105 103 102 100 98 96 94 91 91 91 92 91 88
196 303 339 357 3 356 342 332 108 127 112 106 99 71 122 149 118 113 118 104 124 136 138 140 136 115 123 119 100 64 59 29 89 117 127 137 141 144 145 145 146 147 147 145 144 146 146 146 145 143 142 146 151 141 135 127 122 125 120 121 125 125 125 122 122 118 115 109 99 98 100 108 116 114 110 113 117 115 114 115 114 110 109 107 105 104 103 101 99 97 95 92 91 90 91 90 87
167 351 320 352 358 347 338 37 75 129 116 118 120 131 195 106 106 106 101 116 131 137 138 141 123 92 98 96 49 43 67 69 114 123 134 140 143 143 142 146 149 152 153 149 149 150 149 150 148 148 150 154 154 139 129 125 124 125 118 122 124 121 123 124 121 117 118 114 106 102 103 113 120 114 109 115 117 115 115 115 112 110 111 110 110 109 107 105 103 100 97 95 91 90 90 90 87
74 34 348 15 2 6 25 91 73 125 109 128 132 133 107 105 117 113 113 127 138 142 140 141 114 99 86 58 31 68 72 100 131 131 138 143 144 143 142 145 148 153 154 153 153 151 148 149 151 151 151 150 143 136 136 131 131 129 124 129 125 120 123 123 120 120 122 118 112 109 109 116 122 115 109 115 117 116 116 115 112 113 115 115 114 110 109 107 103 101 98 96 92 91 91 90 87
49 14 359 47 81 86 79 116 126 107 76 121 128 121 118 122 124 116 119 126 135 143 136 125 116 115 93 60 54 70 77 126 144 138 139 143 144 143 142 142 144 147 148 151 148 142 142 145 148 143 140 138 142 157 150 132 130 134 131 133 128 122 124 124 124 127 129 123 116 115 114 118 123 115 109 114 118 119 117 114 112 113 116 117 115 111 108 102 99 100 98 95 93 93 91 88 83
25 349 289 108 97 81 78 104 111 101 77 290 127 126 132 132 129 122 127 127 132 145 132 117 122 113 92 78 71 59 72 141 150 144 142 144 145 142 140 141 142 144 144 143 138 134 139 144 145 142 144 150 166 178 164 145 140 142 139 138 134 126 128 130 130 131 133 129 123 120 119 120 124 117 111 115 119 121 119 115 114 115 115 115 113 110 105 100 101 101 98 96 95 92 90 88 84
11 335 249 225 98 77 108 104 86 77 87 304 81 122 139 140 135 132 136 133 139 149 136 132 131 105 76 83 85 63 82 133 152 145 143 144 143 140 139 142 143 146 143 139 136 137 142 148 150 151 155 163 182 175 169 165 145 150 148 145 140 129 135 136 132 134 137 137 131 127 126 127 128 123 120 120 119 121 120 116 117 117 114 111 110 109 106 104 105 103 102 102 97 90 85 85 85
347 323 240 195 121 112 111 102 97 73 80 118 101 118 135 140 135 132 132 124 133 134 132 143 145 107 96 89 89 83 90 129 151 144 144 142 139 140 142 144 144 149 143 137 139 142 147 152 153 151 158 169 174 161 163 159 143 154 150 152 148 138 143 142 138 141 144 144 139 134 134 135 132 129 127 125 122 123 123 120 118 117 115 114 112 111 111 107 103 102 102 96 90 85 83 81 80
332 330 230 183 136 123 117 105 113 92 91 113 111 129 139 142 127 122 124 120 128 124 120 125 108 114 110 91 87 92 106 135 149 144 144 140 139 145 148 147 147 154 145 139 143 149 150 149 152 151 166 170 166 159 157 153 149 155 148 151 151 149 150 144 147 151 149 148 146 141 139 142 138 134 129 123 125 129 127 124 123 121 120 119 117 115 109 102 99 101 96 90 85 84 87 85 79
332 352 326 178 140 133 128 119 115 106 115 117 119 132 142 141 122 110 114 115 121 120 126 123 110 115 106 90 91 105 121 138 147 141 141 141 146 152 153 151 148 150 144 143 149 154 147 145 152 155 167 159 160 167 159 153 148 147 143 146 146 152 152 147 153 154 152 153 150 146 144 149 145 138 131 121 125 130 127 125 124 124 121 117 116 113 104 99 101 100 92 88 86 86 87 84 79
353 345 321 156 128 130 128 121 120 119 131 141 143 152 153 145 130 123 122 119 125 125 130 145 135 124 103 98 111 123 129 140 148 141 141 146 151 152 152 150 146 145 141 143 154 159 151 149 154 154 157 146 157 175 164 146 137 133 133 141 142 148 153 151 159 155 154 159 157 152 150 153 148 139 130 122 124 127 127 125 124 123 119 114 113 110 104 103 104 97 92 87 85 87 85 81 80
15 344 302 132 89 110 121 119 126 128 145 158 149 155 153 142 126 130 126 121 129 127 117 143 143 127 98 110 123 133 138 146 148 141 143 148 149 148 146 146 145 147 143 148 162 171 160 152 158 163 157 140 148 166 154 139 127 121 124 138 138 144 154 153 161 157 154 164 163 154 147 144 139 133 127 123 124 125 126 127 126 123 119 117 116 112 107 105 102 95 92 89 88 90 86 81 82
19 345 325 116 108 117 119 128 143 143 153 156 140 141 138 103 113 125 124 119 107 115 124 138 138 117 112 124 135 145 148 151 147 142 144 144 145 144 143 147 150 152 147 151 167 176 172 163 168 175 174 151 153 155 142 133 120 117 124 138 139 144 152 152 161 158 155 163 162 148 133 130 131 132 130 125 122 122 124 124 124 120 116 116 116 114 111 106 102 97 93 92 93 93 88 84 83
12 351 2 115 131 133 130 137 146 149 151 154 147 137 110 94 124 114 113 115 97 120 128 136 132 116 145 148 152 155 154 152 149 145 144 141 145 146 145 149 150 152 146 149 165 175 179 171 167 174 166 142 151 150 135 128 118 117 127 140 142 143 146 154 161 158 157 157 153 141 130 131 131 130 127 123 121 120 120 120 120 117 114 114 114 113 108 103 101 97 95 96 98 96 90 86 84
359 338 29 127 144 151 160 147 146 148 150 147 146 136 102 104 122 89 103 122 122 130 127 133 112 99 150 145 146 153 152 150 151 150 150 148 150 149 146 149 148 149 146 148 159 171 178 166 158 157 122 114 130 131 129 128 118 120 130 140 143 142 146 158 160 156 155 150 144 137 134 136 130 126 125 124 123 119 116 115 115 115 116 116 113 109 103 102 99 96 95 99 103 99 91 86 80
343 327 134 143 158 163 159 159 159 143 131 138 151 146 120 118 108 94 121 122 123 126 111 113 73 107 137 141 143 146 147 150 153 155 156 153 152 152 149 149 149 150 150 151 155 159 159 152 141 122 103 101 109 111 117 117 116 122 130 138 143 146 152 158 160 157 154 145 138 134 132 132 128 126 126 123 120 118 115 110 112 115 118 116 110 106 103 103 102 98 96 98 104 101 91 83 76
336 342 135 164 163 150 142 135 130 124 137 151 163 153 137 137 126 121 121 111 116 111 101 96 90 110 133 146 144 140 147 151 154 157 157 155 156 158 153 152 153 152 152 153 158 140 109 94 89 94 100 98 98 103 111 113 118 125 128 137 144 149 155 158 160 158 153 142 134 135 133 130 128 125 121 119 120 119 113 110 115 116 115 112 108 106 104 104 102 98 94 96 101 97 87 79 73
14 2 96 171 138 100 72 80 77 122 146 148 160 156 146 144 141 141 132 123 128 115 110 107 105 113 131 146 145 141 149 151 154 158 157 159 162 162 162 159 155 156 156 158 154 121 98 90 79 82 98 101 104 107 113 114 116 120 124 133 140 144 148 153 156 154 149 140 135 136 135 131 128 123 120 120 120 116 113 119 122 114 110 108 107 106 105 105 100 95 92 93 96 93 85 77 72
14 322 13 70 56 76 84 93 57 85 142 144 150 153 144 143 147 147 135 137 149 140 140 134 129 132 139 146 147 147 150 151 154 157 158 161 164 170 174 165 157 159 160 163 151 119 106 101 91 90 94 99 106 110 113 115 115 116 120 126 134 139 140 144 149 149 147 139 136 137 133 130 126 123 121 119 120 120 122 125 119 111 109 109 109 107 105 102 97 92 89 90 92 91 85 76 69
60 298 1 40 43 116 126 130 52 85 146 143 141 143 141 148 155 147 139 139 170 178 167 154 148 147 147 149 150 151 152 152 154 154 157 163 168 175 181 171 162 161 159 160 148 123 116 104 99 101 99 100 106 109 110 113 115 116 118 122 131 134 133 138 144 145 143 137 134 133 130 130 128 123 120 119 124 129 129 123 116 112 111 112 111 106 103 98 92 88 85 87 89 86 80 71 64
142 235 333 6 127 99 85 137 79 119 145 138 142 148 145 150 158 154 149 137 188 189 178 162 157 152 151 153 151 153 153 153 154 150 151 158 168 175 178 173 166 161 156 156 149 130 125 112 107 109 107 105 106 108 109 112 115 118 120 123 130 129 128 132 136 137 137 133 128 126 128 128 126 121 120 123 125 126 124 119 115 112 113 115 111 106 103 97 92 87 83 83 82 78 71 65 59
206 203 211 252 202 115 70 133 112 130 141 140 148 148 143 145 152 160 151 32 254 185 175 164 160 156 156 157 154 155 155 156 154 148 148 150 160 169 175 174 166 161 154 155 153 142 136 123 115 113 112 109 108 110 111 113 114 118 121 123 126 124 124 127 130 134 134 131 126 125 127 126 124 123 124 124 123 122 120 117 116 115 116 117 114 109 105 98 92 85 80 77 73 70 65 59 54
234 235 203 228 224 199 177 159 135 134 138 142 148 142 143 148 152 164 150 17 132 170 171 167 162 159 161 161 159 160 157 157 159 159 157 154 160 165 169 171 165 160 156 157 151 144 141 129 121 117 116 113 112 114 115 115 115 117 119 121 124 123 122 125 130 133 131 130 128 126 128 130 129 129 128 125 122 120 119 119 119 120 122 123 119 114 106 99 91 82 75 68 61 57 53 50 46
224 235 207 222 244 228 209 181 150 130 128 135 138 127 127 152 155 159 130 72 142 158 163 166 162 161 163 163 162 164 161 163 171 173 168 162 165 163 162 168 166 159 156 156 149 143 139 132 126 122 120 118 118 119 118 116 117 118 119 120 122 123 124 127 130 131 131 131 129 129 131 132 131 129 127 125 123 121 122 123 124 127 130 128 123 115 107 98 88 77 69 59 49 40 39 38 34
212 224 235 230 246 222 195 170 142 120 118 130 126 102 98 139 148 145 127 138 153 157 159 164 163 162 164 164 164 166 167 170 177 180 175 169 171 167 160 164 165 159 158 156 147 141 138 134 129 126 124 122 122 123 121 119 120 121 120 121 123 124 128 130 131 132 133 132 131 132 133 132 130 128 127 127 127 127 127 128 131 134 134 132 127 119 111 99 84 71 59 50 39 32 34 33 28
157 138 64 26 268 199 175 148 130 111 103 128 122 102 107 142 156 156 162 161 159 155 155 163 164 163 166 167 167 169 173 175 179 184 183 179 178 172 163 164 164 161 159 153 145 140 138 135 132 129 126 125 126 125 122 121 123 123 123 125 126 127 129 130 132 134 133 133 134 134 133 133 131 130 131 132 133 132 132 133 134 135 135 135 133 128 118 103 82 64 51 41 34 31 33 32 32
125 120 85 61 45 128 145 132 136 113 86 117 116 105 103 149 192 168 163 164 165 160 155 161 164 164 168 170 172 174 180 182 181 186 190 187 177 168 165 164 162 160 157 151 144 141 139 137 134 132 128 128 128 126 125 125 125 125 125 128 129 129 130 132 134 134 135 135 135 135 134 134 133 135 136 136 136 135 136 136 134 133 132 132 136 140 130 112 83 61 46 33 28 29 32 31 36
129 126 103 84 60 60 98 119 137 106 111 124 117 119 121 161 234 147 161 163 163 162 156 161 165 167 171 174 178 179 182 186 185 187 194 193 178 167 165 163 162 159 157 152 146 142 141 140 138 136 134 132 130 129 129 129 129 128 128 130 131 132 132 134 135 135 136 135 135 135 135 135 136 138 138 137 138 138 140 139 136 133 129 130 142 154 151 135 94 56 32 20 18 20 26 30 35
135 123 110 107 94 51 33 93 122 76 116 122 105 174 170 160 132 154 163 161 160 162 160 164 168 170 174 178 183 183 185 188 187 184 187 189 182 175 168 162 162 160 159 155 151 147 143 142 141 140 139 135 133 133 134 134 134 134 133 133 134 135 135 135 135 135 135 134 135 136 136 138 140 140 140 139 139 139 142 145 145 138 134 136 146 164 170 161 152 45 5 4 10 17 23 29 33
129 124 123 129 134 105 24 97 155 142 91 1 357 189 175 130 129 161 166 164 164 164 165 168 171 175 178 182 185 186 187 190 190 185 182 184 184 182 173 164 163 162 161 158 155 151 146 144 143 143 142 140 137 137 139 139 138 137 136 137 138 137 137 136 135 135 134 134 135 138 140 142 142 142 140 136 136 137 140 145 145 139 137 136 148 171 184 192 210 229 289 336 1 15 19 23 27
123 151 127 126 139 113 51 111 179 201 91 350 334 148 158 122 151 166 169 169 167 167 170 172 174 179 182 185 189 190 191 195 197 197 192 190 190 188 179 168 167 165 161 161 161 155 151 148 145 145 144 142 141 141 143 142 141 142 141 141 140 138 138 137 138 138 138 138 139 141 143 143 143 141 137 134 134 137 140 140 136 134 130 123 139 160 183 206 215 235 247 269 336 358 6 10 14
197 286 121 134 138 133 117 129 217 192 124 25 354 142 143 133 159 169 173 172 169 169 173 176 177 181 185 189 192 194 193 197 204 208 202 197 197 192 186 176 170 169 166 167 167 159 156 154 150 149 147 145 145 145 146 146 145 145 144 144 142 142 141 141 142 143 143 143 143 143 143 142 141 139 136 135 136 140 143 138 133 132 130 126 131 145 169 198 212 234 245 252 293 338 354 2 5
171 128 140 143 140 155 153 141 174 169 159 105 43 128 126 141 161 169 177 176 174 174 175 179 180 182 189 192 196 199 198 199 205 210 205 199 199 195 194 184 175 174 174 172 172 167 162 161 157 155 153 151 150 149 150 149 149 148 148 147 147 147 147 147 148 148 147 147 146 145 143 141 140 139 138 136 134 135 137 136 136 138 139 137 143 156 172 191 200 215 236 262 291 325 343 355 359
220 160 158 146 143 165 157 142 162 170 169 135 123 134 112 146 162 171 181 182 182 181 177 178 181 185 191 195 201 203 204 206 207 210 210 205 202 200 197 188 180 178 179 177 176 175 171 168 166 164 161 158 155 154 155 154 153 153 152 152 152 152 152 153 153 152 150 147 146 145 144 144 143 141 138 134 128 125 129 133 135 137 137 136 142 153 164 171 176 192 223 275 308 327 341 351 350
190 140 137 148 142 147 138 127 160 172 156 139 148 135 126 160 170 176 183 186 189 185 176 177 182 187 192 200 205 208 210 209 210 214 217 216 210 205 201 191 185 182 182 181 179 179 177 174 171 170 167 164 161 160 159 160 159 158 158 158 157 157 156 157 158 156 153 151 150 148 148 148 146 141 133 129 124 120 123 125 128 127 118 117 115 116 126 131 126 113 85 7 359 354 346 346 341
127 123 121 140 137 126 123 129 137 133 168 166 154 118 142 175 183 186 185 187 194 189 182 182 184 188 194 202 206 212 214 210 213 220 224 227 224 218 210 196 187 185 184 184 183 182 181 179 177 175 171 169 167 165 163 164 164 164 164 163 163 163 160 159 159 159 160 162 158 154 156 155 153 150 140 131 124 120 117 112 123 123 107 104 106 107 111 112 102 81 60 41 32 17 2 351 339
122 126 130 133 140 129 104 131 136 1 323 163 146 147 166 178 184 187 184 190 198 196 192 190 190 192 197 203 209 215 218 215 219 225 228 232 232 225 214 202 191 187 185 185 185 184 183 183 182 180 177 174 172 170 167 166 168 169 169 169 171 170 166 162 160 161 167 169 167 170 174 169 163 161 154 143 134 127 117 111 126 129 115 113 115 116 116 112 108 93 66 44 39 32 21 3 339
107 111 145 145 135 129 93 132 137 9 326 150 162 198 187 171 178 187 192 199 205 203 200 197 193 194 199 205 211 215 219 222 222 224 229 231 233 229 216 206 197 191 188 187 187 187 188 189 187 186 184 180 177 176 173 171 170 171 172 175 178 177 172 167 167 169 172 174 177 183 185 178 169 164 157 149 139 130 119 120 137 141 132 122 114 115 117 117 106 83 58 42 36 28 25 5 343
225 161 177 148 158 170 137 163 154 49 20 133 173 208 223 180 182 202 205 206 210 212 212 209 202 201 205 208 212 213 216 222 221 221 226 228 230 228 215 207 200 195 193 190 189 189 191 194 192 190 188 186 184 181 179 177 176 176 176 180 185 184 178 175 175 176 178 181 183 186 187 181 173 166 161 150 135 119 118 153 164 161 151 127 106 112 127 129 112 78 52 43 34 20 12 5 357
250 237 250 184 174 197 88 138 157 105 70 144 161 201 247 205 201 206 200 199 211 217 218 219 216 214 214 212 215 217 217 222 222 218 221 224 226 224 214 207 202 201 200 195 192 191 191 194 196 195 192 190 189 187 184 183 183 184 184 186 187 184 180 180 181 181 183 187 187 188 190 185 178 173 169 158 137 115 124 187 187 185 184 169 154 173 167 165 177 168 93 41 20 11 5 1 6
266 230 243 239 193 167 123 135 154 187 211 191 188 232 240 191 204 207 185 188 209 211 216 221 221 220 220 219 219 220 221 225 226 222 222 224 223 220 215 209 206 208 207 202 198 195 192 193 196 199 197 195 194 192 189 188 188 190 190 190 187 183 182 184 184 184 187 188 189 191 191 187 182 179 177 167 153 148 175 201 206 206 205 209 217 200 181 191 218 212 177 195 291 316 322 326 348
272 284 265 242 197 153 140 151 164 210 221 177 210 247 261 192 208 207 188 195 209 204 216 224 222 219 220 222 222 221 221 224 226 225 226 228 224 220 217 212 210 211 211 207 203 200 195 193 196 199 200 200 198 195 194 193 193 194 195 194 190 187 186 185 184 186 188 187 190 193 193 191 188 187 186 183 178 182 196 209 217 221 216 222 224 205 192 210 216 210 197 220 242 265 271 271 294
273 307 289 228 178 149 147 161 171 220 333 141 201 230 273 273 227 197 188 195 212 213 217 223 222 221 220 223 225 223 223 224 225 224 225 228 227 224 221 217 214 213 212 208 204 202 197 195 198 200 201 203 202 201 199 199 198 198 198 197 195 193 190 187 186 191 193 194 197 199 202 204 202 199 195 196 198 196 202 208 218 228 225 229 231 218 215 223 220 219 226 232 237 246 250 250 258
61 48 353 134 138 138 145 157 155 144 246 225 193 188 248 265 232 173 188 196 214 219 216 217 220 221 220 222 224 225 227 228 228 228 228 229 230 228 225 221 218 214 214 211 206 202 198 195 197 201 204 205 206 207 205 206 205 202 202 201 200 199 195 190 191 196 201 206 210 213 216 219 215 210 204 202 205 205 207 209 218 228 233 240 241 232 232 236 235 238 249 251 251 249 242 239 244
103 106 98 96 106 112 119 130 104 95 271 253 193 187 224 266 216 161 186 202 218 220 214 211 216 219 220 221 222 224 226 228 228 229 231 232 233 231 227 224 220 217 216 214 210 206 201 198 197 198 204 207 209 210 210 211 211 208 206 206 205 204 199 197 199 202 207 213 220 224 228 228 223 217 212 208 208 213 216 216 220 225 233 240 237 230 235 244 245 244 253 264 270 263 248 244 247
144 115 103 98 95 87 78 54 60 82 265 261 187 188 207 274 241 170 184 207 224 223 211 202 207 213 217 220 221 221 225 226 225 225 230 234 234 231 228 225 221 219 218 215 212 209 206 204 201 198 200 205 210 212 213 214 215 214 212 209 209 208 205 206 208 209 214 220 226 232 237 235 229 223 219 217 213 217 223 225 226 231 236 240 238 235 237 245 247 242 251 264 274 268 253 249 249
159 142 131 119 95 93 87 70 71 226 235 2 176 188 198 236 248 170 210 254 274 244 219 195 197 205 209 214 217 218 222 225 224 223 224 226 226 226 226 225 222 220 219 217 214 212 209 208 207 202 200 203 207 211 214 216 219 220 217 214 212 211 212 212 212 215 220 226 232 239 244 242 237 231 228 225 220 221 228 230 233 237 242 243 243 243 242 244 243 243 252 263 268 260 250 250 249
173 178 164 163 145 162 187 185 219 232 204 56 163 186 198 237 266 329 298 288 287 264 242 207 197 202 204 207 211 213 219 221 220 222 220 219 222 224 225 224 222 221 220 219 217 215 213 211 210 207 204 204 206 209 213 217 220 221 220 218 216 215 216 215 216 220 225 231 237 242 247 248 245 243 242 239 233 233 236 238 242 244 245 245 244 245 245 244 241 242 253 263 263 257 250 249 250
185 180 179 199 178 172 203 201 226 245 177 91 154 181 217 252 264 358 346 328 313 289 259 221 204 205 206 205 205 209 214 215 216 219 218 218 223 224 225 226 224 222 220 220 219 218 216 214 213 211 208 206 207 209 212 216 220 223 222 222 221 221 221 221 221 224 228 235 240 241 245 249 251 254 256 254 246 243 243 244 246 246 244 243 242 244 245 246 247 249 256 261 263 261 257 256 258
178 169 221 235 203 202 216 200 211 185 119 118 149 179 240 253 127 69 13 356 349 336 293 229 208 208 209 205 200 204 210 211 212 216 217 221 224 224 225 227 227 224 222 220 221 220 219 217 215 214 211 209 208 210 213 216 219 222 224 224 225 226 227 227 227 226 229 235 238 238 241 245 251 256 260 259 251 246 245 244 246 247 245 242 241 243 244 247 251 253 257 259 260 262 262 263 265
119 42 301 263 245 233 69 87 147 115 118 144 170 212 284 231 143 78 9 4 7 3 349 241 206 202 202 199 197 203 207 207 209 212 217 221 224 224 225 227 228 227 225 223 223 222 221 219 217 216 214 213 212 211 213 217 220 223 226 227 227 228 229 230 230 229 230 232 233 233 238 243 248 251 252 254 251 246 242 241 243 247 248 246 244 243 244 248 252 256 258 259 260 260 258 260 263
121 136 241 251 321 267 126 81 82 137 207 174 182 234 273 203 182 40 6 3 5 3 1 335 206 195 193 192 195 204 207 207 209 211 216 220 222 223 225 227 229 229 228 227 227 226 223 221 218 216 217 217 217 217 217 218 221 224 227 229 231 231 230 230 231 230 230 233 232 231 235 240 243 245 246 247 248 246 242 240 242 246 247 249 249 249 250 251 255 260 261 261 262 261 257 257 259
142 178 206 175 12 262 218 156 149 197 234 185 185 236 278 279 222 9 359 354 353 352 352 343 231 191 193 192 195 204 209 211 212 214 216 219 220 222 224 228 231 232 233 232 232 230 227 225 223 220 219 220 221 222 222 222 223 225 228 231 232 232 232 232 232 232 232 234 235 233 235 238 240 244 246 245 246 246 244 243 244 246 246 246 248 253 255 255 256 258 259 261 261 261 261 260 261
149 159 169 162 215 222 213 202 188 198 236 225 183 227 291 308 322 348 346 344 341 337 337 330 263 197 200 198 195 202 209 211 211 212 215 216 219 222 225 228 231 234 235 235 235 234 231 229 229 227 226 226 227 227 228 229 228 228 231 233 234 234 233 233 233 233 234 235 236 235 237 239 240 244 247 246 246 246 247 247 249 251 248 246 248 252 255 254 254 255 258 261 262 262 264 265 267
87 120 146 166 240 222 248 245 211 209 221 217 189 199 143 102 331 333 329 331 332 329 328 319 283 220 208 204 196 198 207 212 211 210 213 215 218 222 226 230 232 233 235 235 235 235 234 233 233 232 231 230 231 232 233 235 233 233 233 234 235 234 233 234 235 235 236 237 237 236 237 238 240 245 247 246 245 245 245 247 250 252 250 249 249 250 252 252 252 256 259 261 262 263 265 266 268
146 166 171 186 194 221 254 225 252 260 219 203 241 229 112 76 342 318 319 327 332 328 323 314 292 249 214 209 201 196 205 212 212 212 213 215 218 221 225 229 231 233 234 233 234 236 236 236 237 236 235 233 232 233 236 237 235 234 235 234 235 235 234 234 235 236 238 239 239 237 237 238 240 242 243 244 245 244 244 246 248 250 249 249 250 250 251 251 252 255 258 261 263 263 263 265 265
74 160 181 199 188 199 228 212 191 263 264 245 263 258 97 60 337 317 322 332 337 333 329 331 326 287 212 208 208 202 206 211 212 213 214 215 217 219 223 227 228 230 232 232 234 237 237 238 240 240 240 238 236 236 236 235 234 234 234 235 236 237 236 235 235 237 238 239 239 238 238 240 241 241 241 243 245 244 243 244 246 248 248 248 250 249 249 250 251 254 258 261 263 264 263 263 264